TimeEDT,TemperatureF,Dew PointF,Humidity,Sea Level PressureIn,VisibilityMPH,Wind Direction,Wind SpeedMPH,Gust SpeedMPH,PrecipitationIn,Events,Conditions,WindDirDegrees,DateUTC
12:15 AM,73.4,71.6,94,30.04,7.0,Calm,Calm,-,N/A,,Clear,0,2012-10-06 04:15:00
12:35 AM,73.4,71.6,94,30.04,7.0,Calm,Calm,-,N/A,,Clear,0,2012-10-06 04:35:00
12:55 AM,73.4,71.6,94,30.04,7.0,Calm,Calm,-,N/A,,Clear,0,2012-10-06 04:55:00
1:15 AM,73.4,71.6,94,30.04,4.0,Calm,Calm,-,N/A,,Clear,0,2012-10-06 05:15:00
1:35 AM,73.4,71.6,94,30.03,4.0,Calm,Calm,-,N/A,,Clear,0,2012-10-06 05:35:00
1:55 AM,71.6,71.6,100,30.03,5.0,Calm,Calm,-,N/A,,Clear,0,2012-10-06 05:55:00
2:15 AM,71.6,71.6,100,30.03,5.0,Calm,Calm,-,N/A,,Clear,0,2012-10-06 06:15:00
2:55 AM,71.6,71.6,100,30.03,5.0,Calm,Calm,-,N/A,,Clear,0,2012-10-06 06:55:00
3:15 AM,71.6,71.6,100,30.03,4.0,Calm,Calm,-,N/A,,Clear,0,2012-10-06 07:15:00
3:35 AM,71.6,69.8,94,30.02,5.0,Calm,Calm,-,N/A,,Clear,0,2012-10-06 07:35:00
3:55 AM,71.6,69.8,94,30.01,7.0,Calm,Calm,-,N/A,,Clear,0,2012-10-06 07:55:00
4:15 AM,71.6,69.8,94,30.00,5.0,Calm,Calm,-,N/A,,Clear,0,2012-10-06 08:15:00
4:35 AM,71.6,69.8,94,30.00,4.0,Calm,Calm,-,N/A,,Clear,0,2012-10-06 08:35:00
4:55 AM,71.6,69.8,94,30.00,1.8,Calm,Calm,-,N/A,,Mist,0,2012-10-06 08:55:00
5:15 AM,69.8,69.8,100,29.99,1.0,Calm,Calm,-,N/A,,Mist,0,2012-10-06 09:15:00
5:35 AM,69.8,69.8,100,29.99,1.8,Calm,Calm,-,N/A,,Mostly Cloudy,0,2012-10-06 09:35:00
5:55 AM,71.6,69.8,94,30.00,1.0,Calm,Calm,-,N/A,,Overcast,0,2012-10-06 09:55:00
6:15 AM,71.6,69.8,94,30.00,0.5,Calm,Calm,-,N/A,Fog,Fog,0,2012-10-06 10:15:00
6:35 AM,71.6,69.8,94,30.00,0.5,Calm,Calm,-,N/A,Fog,Fog,0,2012-10-06 10:35:00
6:55 AM,71.6,69.8,94,30.00,0.8,Calm,Calm,-,N/A,,Overcast,0,2012-10-06 10:55:00
7:15 AM,71.6,69.8,94,30.00,1.0,Calm,Calm,-,N/A,,Overcast,0,2012-10-06 11:15:00
7:35 AM,71.6,69.8,94,30.01,5.0,Calm,Calm,-,N/A,,Mostly Cloudy,0,2012-10-06 11:35:00
7:55 AM,71.6,69.8,94,30.02,4.0,Calm,Calm,-,N/A,,Overcast,0,2012-10-06 11:55:00
8:15 AM,71.6,71.6,100,30.03,4.0,Calm,Calm,-,N/A,,Overcast,0,2012-10-06 12:15:00
8:35 AM,71.6,71.6,100,30.03,4.0,Calm,Calm,-,N/A,,Overcast,0,2012-10-06 12:35:00
8:55 AM,73.4,71.6,94,30.03,5.0,Calm,Calm,-,N/A,,Overcast,0,2012-10-06 12:55:00
9:15 AM,73.4,71.6,94,30.03,4.0,Calm,Calm,-,N/A,,Scattered Clouds,0,2012-10-06 13:15:00
9:35 AM,75.2,73.4,94,30.03,10.0,Calm,Calm,-,N/A,,Mostly Cloudy,0,2012-10-06 13:35:00
9:55 AM,75.2,73.4,94,30.03,10.0,Calm,Calm,-,N/A,,Overcast,0,2012-10-06 13:55:00
10:15 AM,77.0,73.4,89,30.03,10.0,Calm,Calm,-,N/A,,Mostly Cloudy,0,2012-10-06 14:15:00
10:35 AM,78.8,73.4,83,30.03,10.0,Calm,Calm,-,N/A,,Mostly Cloudy,0,2012-10-06 14:35:00
10:55 AM,78.8,73.4,83,30.03,10.0,North,3.5,-,N/A,,Scattered Clouds,10,2012-10-06 14:55:00
11:15 AM,80.6,73.4,79,30.02,10.0,NW,5.8,-,N/A,,Scattered Clouds,320,2012-10-06 15:15:00
11:35 AM,82.4,73.4,74,30.02,10.0,North,5.8,-,N/A,,Scattered Clouds,350,2012-10-06 15:35:00
11:55 AM,80.6,73.4,79,30.02,10.0,NW,5.8,-,N/A,,Mostly Cloudy,310,2012-10-06 15:55:00
12:15 PM,82.4,71.6,70,30.02,10.0,NNW,4.6,-,N/A,,Mostly Cloudy,330,2012-10-06 16:15:00
12:35 PM,82.4,71.6,70,30.01,10.0,Calm,Calm,-,N/A,,Scattered Clouds,0,2012-10-06 16:35:00
12:55 PM,82.4,71.6,70,30.01,10.0,NNW,8.1,-,N/A,,Scattered Clouds,340,2012-10-06 16:55:00
1:15 PM,84.2,71.6,66,30.00,10.0,NW,5.8,-,N/A,,Scattered Clouds,310,2012-10-06 17:15:00
1:35 PM,86.0,71.6,62,29.99,10.0,NNW,4.6,-,N/A,,Scattered Clouds,330,2012-10-06 17:35:00
1:55 PM,82.4,71.6,70,29.98,10.0,NNW,8.1,-,N/A,,Scattered Clouds,340,2012-10-06 17:55:00
2:15 PM,86.0,69.8,58,29.96,10.0,Calm,Calm,-,N/A,,Clear,0,2012-10-06 18:15:00
2:35 PM,86.0,69.8,58,29.96,10.0,Calm,Calm,-,N/A,,Scattered Clouds,0,2012-10-06 18:35:00
2:55 PM,86.0,69.8,58,29.95,10.0,NW,5.8,-,N/A,,Mostly Cloudy,310,2012-10-06 18:55:00
3:15 PM,87.8,69.8,55,29.94,10.0,North,6.9,-,N/A,,Scattered Clouds,350,2012-10-06 19:15:00
3:35 PM,87.8,69.8,55,29.93,10.0,NW,9.2,-,N/A,,Clear,310,2012-10-06 19:35:00
3:55 PM,87.8,69.8,55,29.92,10.0,Calm,Calm,-,N/A,,Clear,0,2012-10-06 19:55:00
4:15 PM,87.8,68.0,52,29.92,10.0,WNW,3.5,-,N/A,,Clear,300,2012-10-06 20:15:00
4:35 PM,87.8,68.0,52,29.92,10.0,NNW,4.6,-,N/A,,Clear,340,2012-10-06 20:35:00
4:55 PM,87.8,68.0,52,29.92,10.0,Calm,Calm,-,N/A,,Clear,0,2012-10-06 20:55:00
5:15 PM,87.8,68.0,52,29.91,10.0,NNW,3.5,-,N/A,,Clear,330,2012-10-06 21:15:00
5:35 PM,87.8,68.0,52,29.91,10.0,Calm,Calm,-,N/A,,Clear,0,2012-10-06 21:35:00
5:55 PM,87.8,66.2,49,29.91,10.0,NW,5.8,-,N/A,,Clear,310,2012-10-06 21:55:00
6:15 PM,86.0,68.0,55,29.92,10.0,NW,3.5,-,N/A,,Clear,320,2012-10-06 22:15:00
6:35 PM,86.0,68.0,55,29.92,10.0,Calm,Calm,-,N/A,,Clear,0,2012-10-06 22:35:00
7:15 PM,80.6,69.8,70,29.93,10.0,Calm,Calm,-,N/A,,Clear,0,2012-10-06 23:15:00
7:35 PM,80.6,69.8,70,29.93,10.0,Calm,Calm,-,N/A,,Clear,0,2012-10-06 23:35:00
7:55 PM,78.8,71.6,78,29.94,10.0,Calm,Calm,-,N/A,,Clear,0,2012-10-06 23:55:00
8:15 PM,77.0,71.6,83,29.95,10.0,Calm,Calm,-,N/A,,Clear,0,2012-10-07 00:15:00
8:35 PM,77.0,71.6,83,29.95,10.0,Calm,Calm,-,N/A,,Clear,0,2012-10-07 00:35:00
8:55 PM,77.0,71.6,83,29.96,10.0,Calm,Calm,-,N/A,,Scattered Clouds,0,2012-10-07 00:55:00
9:15 PM,77.0,71.6,83,29.97,10.0,Calm,Calm,-,N/A,,Scattered Clouds,0,2012-10-07 01:15:00
9:35 PM,75.2,71.6,89,29.97,10.0,Calm,Calm,-,N/A,,Clear,0,2012-10-07 01:35:00
9:55 PM,75.2,71.6,89,29.98,10.0,Calm,Calm,-,N/A,,Scattered Clouds,0,2012-10-07 01:55:00
10:15 PM,75.2,71.6,89,29.98,10.0,Calm,Calm,-,N/A,,Clear,0,2012-10-07 02:15:00
10:35 PM,73.4,71.6,94,29.98,10.0,Calm,Calm,-,N/A,,Clear,0,2012-10-07 02:35:00
10:55 PM,73.4,69.8,88,29.99,10.0,Calm,Calm,-,N/A,,Clear,0,2012-10-07 02:55:00
11:15 PM,73.4,69.8,88,29.99,10.0,Calm,Calm,-,N/A,,Clear,0,2012-10-07 03:15:00
11:35 PM,73.4,69.8,88,29.99,10.0,Calm,Calm,-,N/A,,Clear,0,2012-10-07 03:35:00